This is the latest recevied weather packets stored in our database for station/object DL3NDS-WX. If no packets are shown the sender has not sent any weather packets the latest 1 day(s).
| Time | Temp. | Humidity | Pressure | Rain* | Wind** | Luminosity | Snow |
|---|---|---|---|---|---|---|---|
| 1778007048 | 11.67° C | 89% | 1007.9 hPa | 3.3 mm | - | 0 W/m² | - |
| 1778006987 | 11.67° C | 89% | 1008 hPa | 3.3 mm | - | 0 W/m² | - |
| 1778006368 | 11.67° C | 90% | 1008.3 hPa | 7.87 mm | - | 0 W/m² | - |
| 1778006250 | 11.67° C | 89% | 1008.3 hPa | 8.13 mm | - | 0 W/m² | - |
| 1778006188 | 11.67° C | 89% | 1008.3 hPa | 8.13 mm | - | 0 W/m² | - |
| 1778006126 | 11.67° C | 89% | 1008.3 hPa | 8.64 mm | - | 0 W/m² | - |
| 1778006064 | 11.67° C | 89% | 1008.4 hPa | 8.64 mm | - | 0 W/m² | - |
| 1778005265 | 11.67° C | 88% | 1008.4 hPa | 8.38 mm | - | 0 W/m² | - |
| 1778005085 | 11.67° C | 88% | 1008.4 hPa | 8.38 mm | - | 0 W/m² | - |
| 1778005029 | 11.67° C | 88% | 1008.3 hPa | 8.13 mm | - | 0 W/m² | - |
| 1778004717 | 11.67° C | 88% | 1008.4 hPa | 7.87 mm | - | 0 W/m² | - |
| 1778004416 | 12.22° C | 87% | 1008.4 hPa | 7.62 mm | - | 0 W/m² | - |
| 1778004289 | 12.22° C | 87% | 1008.4 hPa | 7.62 mm | - | 0 W/m² | - |
| 1778004105 | 12.22° C | 87% | 1008.3 hPa | 7.11 mm | - | 0 W/m² | - |
| 1778004043 | 12.22° C | 86% | 1008.3 hPa | 7.11 mm | - | 0 W/m² | - |
| 1778003982 | 12.22° C | 86% | 1008.4 hPa | 6.86 mm | - | 0 W/m² | - |
| 1778003921 | 12.22° C | 86% | 1008.3 hPa | 6.86 mm | - | 0 W/m² | - |
| 1778003671 | 12.22° C | 85% | 1008.2 hPa | 6.1 mm | - | 0 W/m² | - |
| 1778003553 | 12.22° C | 85% | 1008.2 hPa | 5.84 mm | - | 0 W/m² | - |
| 1778003495 | 12.78° C | 84% | 1008.2 hPa | 5.33 mm | - | 0 W/m² | - |
| 1778003392 | 12.78° C | 83% | 1008.2 hPa | 4.83 mm | - | 0 W/m² | - |
| 1778003246 | 12.78° C | 83% | 1008.2 hPa | 4.32 mm | - | 0 W/m² | - |
| 1778003185 | 13.33° C | 83% | 1008.2 hPa | 4.06 mm | - | 0 W/m² | - |
| 1778003124 | 13.33° C | 82% | 1008.1 hPa | 3.81 mm | - | 0 W/m² | - |
| 1778002751 | 14.44° C | 78% | 1008.5 hPa | 0.76 mm | - | 0 W/m² | - |
* Rain latest hour (hover to see other rain measurements)
** Current wind speed in m/s (hover to see current wind gust speed)